Regional Weather Roundup
Issued by NWS

Home | Current Version | Previous Version | Graphics & Text | Print | Product List | Glossary On
Versions: 1 2 3 4 5 6 7 8 9 10 11 12 13 14 15 16 17 18 19 20 21 22 23 24 25 26 27 28 29 30 31 32 33 34 35 36 37 38 39 40 41 42 43 44 45 46 47 48 49 50
574
ASUS45 KBOI 021110
RWRID

IDAHO REGIONAL WEATHER ROUNDUP
NATIONAL WEATHER SERVICE BOISE ID
500 AM MDT MON MAY 02 2016

NOTE: "FAIR" INDICATES FEW OR NO CLOUDS BELOW 12000 FEET
WITH NO SIGNIFICANT WEATHER AND/OR OBSTRUCTIONS TO VISIBILITY

IDZ012-014-021200-
SOUTHWEST IDAHO


CITY           SKY/WX    TMP DP  RH WIND       PRES   REMARKS
BOISE          CLEAR     49  37  63 CALM      30.10R
CALDWELL       CLEAR     44  36  73 E5        30.10R
MOUNTAIN HOME  CLEAR     39  33  77 E6        30.12R WCI  35
$$

IDZ016-017-021200-
SOUTHCENTRAL IDAHO


CITY           SKY/WX    TMP DP  RH WIND       PRES   REMARKS
BURLEY         CLEAR     34  31  88 SW3       30.15R
JEROME         CLEAR     43  31  62 E10       30.15R
TWIN FALLS     CLEAR     35  29  78 S8        30.15S WCI  29
$$

IDZ019>023-021200-
SOUTHEAST IDAHO


CITY           SKY/WX    TMP DP  RH WIND       PRES   REMARKS
IDAHO FALLS    CLEAR     33  23  66 W3        30.23R
POCATELLO      CLEAR     40  26  57 NW3       30.20R
REXBURG        CLEAR     35  22  58 CALM      30.23R
$$

IDZ006-010-011-018-031-032-021200-
CENTRAL IDAHO MOUNTAINS


CITY           SKY/WX    TMP DP  RH WIND       PRES   REMARKS
MCCALL         CLEAR     35  32  88 NE3       30.16R
HAILEY         CLEAR     36  30  80 NW9       30.22S WCI  29
STANLEY          N/A     27  22  81 CALM      30.23F
SALMON         CLEAR     34  27  75 NW3       30.20R
CHALLIS        CLEAR     33  24  69 N3        30.20R
$$

IDZ002-004-006-007-026-021200-
NORTHERN IDAHO


CITY           SKY/WX    TMP DP  RH WIND       PRES   REMARKS
LEWISTON       CLEAR     49  44  83 SE6       30.07R
LOWELL           N/A     45  42  89 NW6       30.15R
COEUR D`ALENE  CLEAR     48  39  71 E8        30.08R
MULLAN PASS    CLEAR     45  29  53 SE9G17    30.20R
$$




USA.gov is the U.S. government's official web portal to all federal, state and local government web resources and services.